GFSNGP_925_temp_132.txt.gz
Temp
14 14 12 10 11 10 11 11 12 9 8 6 5 4 3 3 3 3 3 2 1 -0 -1 -1 -1 -2 -2 -2 -2 -2 -2 -1 -1 -1 -0 0 0 -0 -1 -1 -1 -1 -1 -2
9 12 12 9 8 7 11 11 10 9 6 5 5 5 3 2 2 2 2 2 0 -1 -1 -0 -0 -1 -2 -2 -3 -2 -2 -2 -1 -1 -1 -1 -1 -1 -1 -1 -2 -2 -2 -2
12 11 13 10 8 9 11 12 11 10 7 6 5 4 2 2 2 1 2 1 -0 -1 -1 -0 0 -1 -1 -2 -2 -3 -3 -3 -2 -2 -2 -2 -2 -2 -2 -2 -2 -3 -3 -3
13 12 12 8 11 12 10 10 9 7 7 7 5 3 2 1 1 0 2 1 1 -2 -2 0 0 0 -1 -1 -2 -2 -2 -3 -3 -3 -3 -2 -2 -2 -2 -2 -2 -3 -3 -4
13 13 9 9 11 11 11 9 10 8 7 6 5 4 2 1 -0 -0 2 2 2 0 -0 -0 -0 0 -0 -1 -1 -2 -2 -2 -3 -3 -3 -3 -3 -3 -3 -3 -3 -3 -3 -4
14 13 13 12 12 13 13 10 10 9 7 6 5 5 2 0 -0 -1 2 3 2 2 1 1 1 0 1 -0 -1 -1 -2 -2 -2 -3 -4 -4 -4 -4 -4 -4 -4 -4 -4 -5
13 14 10 13 12 12 10 9 10 10 8 7 6 3 0 -1 -1 -1 1 3 3 2 1 1 1 0 0 1 0 -1 -1 -1 -2 -2 -3 -4 -4 -5 -5 -4 -5 -5 -5 -5
14 13 10 12 10 10 9 10 10 10 9 8 3 2 1 -1 -1 1 3 3 3 2 1 -0 -0 0 -0 -0 1 0 -1 -1 -1 -1 -2 -3 -4 -5 -6 -6 -6 -6 -6 -6
9 8 8 8 9 10 10 9 9 8 6 4 3 2 1 1 4 4 4 3 2 1 0 -1 -1 -1 -1 -1 0 -0 -1 -2 -1 -2 -1 -3 -3 -5 -6 -7 -7 -7 -8 -8
9 7 7 7 9 10 10 9 8 7 6 5 3 3 3 4 4 4 3 2 2 1 0 -1 -2 -2 -3 -2 -2 -1 -2 -2 -2 -2 -2 -2 -4 -4 -6 -7 -8 -8 -9 -9
7 7 7 7 7 8 8 8 7 7 6 5 5 4 4 4 4 3 2 1 1 -0 -1 -1 -3 -3 -4 -4 -3 -3 -3 -3 -4 -3 -3 -3 -4 -5 -6 -8 -8 -9 -9 -9
10 8 8 7 6 6 5 6 6 6 5 5 5 4 4 3 2 2 1 0 -0 -1 -2 -2 -4 -5 -6 -5 -5 -5 -4 -5 -4 -4 -4 -5 -5 -5 -5 -6 -7 -8 -8 -9
10 9 9 7 6 6 5 5 5 5 5 5 4 4 3 2 1 0 -0 -1 -2 -2 -3 -4 -6 -7 -8 -7 -7 -7 -6 -7 -6 -5 -6 -6 -6 -6 -6 -6 -6 -6 -7 -9
10 9 7 7 7 7 6 5 5 4 4 3 3 2 1 -0 -1 -0 -1 -2 -3 -4 -4 -5 -7 -9 -10 -9 -8 -7 -7 -8 -8 -7 -6 -6 -6 -6 -6 -6 -7 -7 -7 -8
9 9 8 8 7 7 6 4 4 3 3 2 2 1 -0 -0 -1 -2 -3 -4 -4 -5 -6 -8 -9 -10 -10 -10 -9 -7 -7 -7 -8 -7 -7 -7 -7 -7 -7 -7 -7 -7 -8 -9
10 9 8 8 7 6 5 5 4 3 2 1 1 0 0 -1 -2 -3 -5 -6 -3 -7 -9 -10 -10 -10 -10 -11 -10 -7 -7 -7 -8 -8 -7 -7 -7 -8 -8 -8 -8 -8 -9 -10
9 8 8 7 6 5 5 4 4 2 2 1 1 -0 -1 -2 -3 -4 -6 -8 -8 -9 -9 -10 -10 -10 -11 -11 -11 -9 -8 -8 -8 -8 -8 -8 -9 -9 -9 -9 -9 -9 -9 -10
10 9 8 7 6 5 4 4 3 2 1 0 -1 -1 -2 -3 -3 -6 -8 -9 -9 -9 -10 -9 -10 -10 -11 -11 -11 -10 -8 -8 -8 -8 -8 -9 -10 -9 -9 -10 -10 -10 -10 -11
9 9 8 7 6 5 4 4 3 2 0 -1 -2 -4 -4 -5 -6 -7 -9 -9 -10 -9 -9 -9 -10 -11 -11 -11 -11 -10 -9 -9 -9 -9 -9 -10 -10 -10 -10 -10 -11 -11 -11 -11
9 8 7 6 5 5 4 3 1 -2 -3 -3 -4 -6 -7 -7 -8 -9 -9 -9 -8 -8 -8 -10 -10 -11 -10 -10 -10 -10 -9 -9 -10 -10 -10 -10 -10 -11 -11 -11 -11 -11 -12 -12
6 6 5 3 2 3 2 0 -2 -4 -5 -5 -6 -7 -7 -8 -9 -9 -9 -8 -6 -8 -9 -10 -10 -10 -9 -9 -10 -10 -10 -10 -10 -10 -10 -11 -11 -11 -11 -12 -12 -12 -12 -12
1 0 -1 -1 -2 -3 -2 -3 -4 -5 -6 -7 -7 -7 -8 -9 -9 -9 -8 -8 -8 -8 -9 -9 -8 -9 -9 -10 -11 -11 -10 -10 -10 -10 -11 -11 -11 -11 -12 -12 -12 -12 -13 -13
-0 -1 -2 -2 -3 -4 -4 -5 -6 -6 -7 -8 -8 -8 -8 -7 -8 -7 -6 -6 -7 -7 -9 -8 -8 -9 -10 -10 -11 -11 -11 -10 -10 -11 -11 -11 -11 -11 -12 -12 -12 -12 -13 -13
-1 -2 -3 -3 -4 -5 -5 -7 -7 -8 -8 -8 -8 -8 -7 -6 -6 -6 -6 -7 -7 -8 -9 -9 -9 -10 -10 -11 -11 -11 -11 -10 -11 -11 -11 -11 -12 -12 -12 -12 -12 -13 -13 -13
-2 -3 -3 -4 -4 -4 -4 -7 -7 -8 -8 -7 -8 -8 -7 -7 -6 -6 -7 -7 -8 -8 -9 -9 -9 -9 -10 -11 -11 -11 -11 -11 -11 -11 -12 -12 -12 -13 -13 -13 -13 -13 -13 -14
-2 -2 -3 -4 -2 -2 -3 -5 -4 -6 -6 -5 -6 -6 -7 -7 -7 -7 -7 -8 -8 -8 -9 -9 -9 -9 -10 -10 -10 -10 -11 -11 -12 -12 -13 -13 -14 -14 -14 -14 -14 -14 -14 -15
-2 -1 -2 -3 -1 -1 -3 -4 -3 -3 -4 -4 -4 -5 -6 -6 -7 -7 -7 -8 -8 -8 -9 -9 -9 -10 -10 -11 -11 -12 -12 -13 -14 -14 -15 -16 -16 -16 -16 -17 -18 -18 -17 -17

GFSNGP_925_temp_135.txt.gz
Temp
13 13 11 9 10 10 10 10 9 6 6 6 5 4 3 2 2 2 1 -0 -1 -1 -1 -0 -1 -2 -2 -2 -3 -3 -3 -3 -2 -2 -2 -2 -2 -2 -3 -3 -3 -3 -4 -4
6 10 12 6 6 6 8 10 9 7 5 6 4 3 2 2 1 1 1 -0 -1 -1 -1 -0 -0 -1 -2 -2 -3 -3 -3 -3 -3 -3 -2 -2 -2 -2 -3 -3 -4 -4 -4 -5
10 9 11 10 6 7 10 11 10 7 6 4 4 3 2 1 1 1 0 -0 -2 -2 -2 -1 -0 -1 -1 -2 -2 -3 -3 -3 -3 -3 -3 -3 -3 -3 -3 -3 -4 -5 -5 -5
9 10 10 8 9 9 10 9 7 5 4 5 3 1 0 0 -0 -0 1 -0 -2 -1 -0 -0 0 -0 -1 -1 -2 -2 -2 -3 -4 -4 -4 -4 -4 -4 -4 -4 -4 -5 -6 -7
10 10 9 9 10 10 8 8 7 5 5 3 2 1 -0 -0 -1 -2 1 1 -0 0 0 -0 0 0 -1 -1 -2 -2 -2 -3 -4 -4 -5 -5 -5 -5 -5 -6 -5 -6 -7 -8
10 11 10 10 11 11 11 7 8 7 4 3 3 3 1 -1 -1 -1 0 2 1 1 0 0 -0 -0 -0 -1 -1 -2 -2 -2 -3 -4 -5 -5 -6 -6 -6 -7 -7 -7 -7 -8
8 10 10 12 11 12 8 7 8 7 5 4 3 1 -1 -1 -2 -1 0 2 1 -0 -1 -1 -1 -1 -1 -1 -1 -1 -2 -2 -3 -3 -4 -5 -6 -6 -7 -7 -8 -8 -9 -9
9 10 10 10 10 9 7 8 8 7 6 5 0 -1 -1 -2 -3 -1 2 1 0 -1 -1 -2 -2 -2 -3 -2 -1 -2 -2 -2 -2 -3 -4 -5 -6 -7 -7 -8 -8 -9 -9 -10
8 7 6 8 8 8 7 6 5 4 3 2 1 -0 -1 -1 -1 2 2 1 0 -1 -2 -2 -3 -3 -4 -3 -2 -3 -3 -3 -3 -3 -4 -5 -5 -6 -7 -8 -9 -9 -9 -10
6 6 6 7 9 9 7 5 5 4 3 3 1 1 1 1 2 1 1 1 -0 -1 -2 -3 -4 -4 -5 -4 -4 -4 -4 -4 -4 -4 -5 -5 -6 -6 -7 -8 -9 -10 -10 -10
5 6 7 7 8 7 6 6 5 5 4 3 2 2 3 2 2 1 0 -0 -1 -2 -3 -4 -5 -6 -6 -6 -5 -5 -5 -5 -5 -5 -5 -5 -6 -6 -6 -7 -8 -9 -9 -10
3 5 5 5 6 5 5 5 5 5 4 4 4 3 3 2 1 0 -0 -1 -2 -2 -4 -5 -6 -7 -7 -7 -6 -6 -6 -6 -6 -6 -6 -6 -6 -6 -6 -6 -7 -8 -9 -9
7 6 6 5 6 5 4 4 5 4 5 4 3 3 2 0 0 -0 -1 -2 -3 -3 -5 -6 -7 -8 -8 -8 -7 -7 -7 -7 -7 -7 -7 -7 -7 -7 -7 -7 -7 -7 -8 -9
7 5 5 5 5 4 4 4 4 4 4 3 2 1 -0 -0 -0 -1 -2 -3 -4 -5 -6 -7 -8 -9 -8 -8 -7 -7 -7 -7 -7 -7 -7 -7 -7 -8 -8 -8 -8 -8 -9 -10
7 7 5 6 6 5 4 4 2 1 1 1 1 -1 -1 -1 -3 -3 -3 -4 -5 -6 -7 -8 -9 -9 -8 -8 -7 -7 -7 -8 -8 -8 -8 -8 -8 -8 -9 -9 -9 -9 -10 -10
7 6 6 5 4 4 3 2 1 -0 -0 -0 -1 -1 -1 -2 -3 -4 -4 -5 -5 -7 -8 -9 -9 -9 -9 -9 -8 -8 -8 -8 -8 -8 -8 -9 -9 -9 -9 -10 -10 -10 -10 -11
6 5 5 4 3 3 2 1 0 -0 0 -0 -0 -1 -2 -3 -4 -5 -6 -6 -6 -7 -9 -9 -9 -10 -9 -9 -9 -9 -9 -9 -9 -8 -9 -9 -10 -10 -10 -10 -10 -11 -11 -11
7 6 4 4 2 1 1 2 1 1 -0 0 -0 -1 -2 -3 -5 -6 -7 -7 -8 -9 -9 -9 -9 -10 -10 -10 -10 -9 -9 -9 -9 -9 -9 -10 -10 -10 -11 -11 -11 -11 -11 -12
7 5 5 4 4 3 2 1 1 1 1 -0 -1 -2 -3 -3 -4 -6 -7 -8 -8 -9 -8 -9 -9 -10 -10 -10 -10 -10 -9 -9 -9 -10 -10 -10 -10 -11 -11 -11 -11 -12 -12 -12
6 6 6 4 5 4 2 2 1 0 -0 -1 -2 -4 -5 -6 -6 -7 -8 -8 -8 -8 -8 -8 -9 -9 -10 -10 -10 -10 -10 -10 -10 -10 -10 -10 -11 -11 -11 -11 -11 -12 -12 -12
2 3 3 2 2 3 2 1 -0 -3 -3 -2 -3 -5 -6 -7 -7 -7 -9 -9 -7 -8 -8 -9 -9 -9 -10 -10 -10 -10 -10 -10 -10 -10 -10 -11 -11 -11 -11 -11 -12 -12 -12 -12
0 -1 -1 -0 -1 -2 -1 -1 -1 -3 -4 -5 -5 -6 -7 -8 -8 -8 -8 -8 -7 -8 -8 -8 -9 -9 -9 -10 -10 -10 -10 -11 -11 -11 -11 -11 -11 -11 -12 -12 -12 -12 -12 -12
-1 -1 -2 -2 -3 -4 -3 -3 -3 -4 -5 -6 -6 -7 -7 -7 -7 -8 -8 -6 -7 -8 -8 -9 -9 -9 -9 -9 -10 -10 -11 -11 -11 -11 -11 -11 -11 -12 -12 -12 -13 -13 -13 -13
-2 -2 -2 -3 -3 -5 -7 -6 -6 -6 -6 -6 -6 -6 -6 -7 -7 -6 -6 -6 -7 -8 -8 -9 -9 -9 -9 -10 -10 -10 -10 -10 -11 -11 -11 -12 -12 -13 -13 -13 -14 -14 -14 -14
-2 -3 -3 -4 -5 -5 -5 -7 -7 -8 -7 -7 -7 -7 -7 -6 -6 -7 -7 -8 -8 -8 -8 -9 -9 -9 -10 -10 -10 -10 -11 -11 -12 -12 -13 -14 -14 -15 -15 -16 -16 -16 -16 -17
-3 -4 -4 -4 -4 -4 -5 -7 -8 -8 -8 -7 -7 -7 -7 -7 -7 -7 -7 -8 -8 -8 -8 -9 -9 -10 -10 -11 -12 -12 -13 -13 -14 -15 -16 -16 -17 -17 -17 -18 -19 -19 -19 -19
-2 -2 -3 -4 -3 -4 -4 -5 -6 -7 -6 -6 -6 -6 -6 -7 -7 -7 -7 -8 -8 -9 -10 -10 -11 -12 -12 -13 -14 -14 -15 -15 -16 -17 -18 -18 -19 -19 -20 -21 -21 -21 -21 -22

GFSNGP_925_temp_138.txt.gz
Temp
11 12 10 9 10 10 10 9 9 6 6 5 4 4 3 2 0 1 -0 -1 -2 -2 -2 -1 -1 -2 -2 -2 -3 -3 -3 -4 -3 -3 -3 -3 -3 -4 -5 -5 -5 -5 -5 -4
9 10 11 8 6 7 8 10 8 7 6 4 3 3 2 2 1 0 0 -1 -1 -2 -2 -1 -1 -2 -2 -2 -3 -3 -4 -4 -4 -4 -4 -4 -4 -4 -5 -6 -6 -6 -5 -5
11 9 10 10 7 6 8 9 9 7 7 3 3 3 1 1 1 0 -0 -1 -2 -2 -2 -1 -1 -1 -2 -2 -3 -3 -4 -4 -5 -5 -5 -5 -5 -5 -5 -7 -7 -8 -7 -6
10 10 10 8 8 8 9 8 7 5 4 3 3 1 1 1 0 0 -0 -1 -1 -1 -1 -1 -1 -1 -1 -2 -3 -3 -4 -4 -5 -5 -6 -6 -6 -7 -6 -7 -8 -8 -8 -8
10 10 9 8 9 9 9 8 6 4 4 2 1 1 -0 0 -0 -1 -1 -1 -1 -1 -1 -1 -1 -1 -2 -2 -3 -3 -4 -5 -5 -6 -6 -7 -7 -7 -8 -8 -8 -9 -9 -9
9 10 9 10 10 10 10 8 6 5 2 1 1 2 1 -0 -0 -1 -1 -0 -1 -1 -1 -1 -1 -1 -2 -2 -2 -3 -3 -4 -5 -5 -6 -7 -7 -8 -8 -9 -9 -9 -9 -9
8 9 9 11 10 10 8 8 6 4 3 2 2 1 -0 -0 -1 -1 -0 -1 -1 -1 -2 -2 -2 -2 -2 -3 -3 -3 -3 -4 -5 -5 -6 -7 -7 -8 -9 -9 -9 -9 -9 -9
8 9 9 9 10 9 7 6 6 4 3 2 -1 -1 -1 -1 -1 -1 -0 -1 -1 -2 -3 -3 -3 -3 -3 -3 -3 -3 -4 -4 -5 -6 -6 -6 -7 -8 -8 -9 -9 -9 -10 -9
8 7 6 7 8 7 6 5 4 4 4 1 -0 -0 -0 -1 -1 1 -0 -1 -2 -3 -4 -4 -4 -4 -4 -4 -4 -5 -5 -5 -5 -6 -6 -6 -7 -7 -8 -9 -9 -9 -10 -10
6 5 6 7 8 6 5 3 2 3 2 1 1 0 0 0 0 0 -1 -2 -3 -3 -5 -5 -5 -5 -6 -5 -5 -5 -6 -6 -6 -6 -6 -6 -7 -7 -7 -8 -9 -10 -10 -10
4 5 6 6 6 4 3 3 2 2 2 2 1 1 1 1 1 -0 -1 -2 -3 -4 -5 -6 -6 -6 -6 -6 -6 -6 -6 -7 -7 -7 -7 -7 -7 -7 -8 -8 -9 -9 -9 -10
5 5 5 4 4 4 3 3 3 2 2 2 2 2 2 1 0 -1 -2 -2 -4 -5 -6 -7 -7 -7 -7 -7 -7 -6 -7 -7 -7 -7 -7 -7 -8 -7 -8 -8 -8 -9 -9 -9
7 5 5 3 4 5 3 3 3 3 3 3 3 2 1 -0 -1 -1 -2 -3 -4 -5 -6 -7 -7 -7 -7 -7 -7 -7 -8 -8 -8 -7 -8 -8 -8 -8 -8 -8 -9 -9 -10 -10
5 4 4 4 3 5 4 4 4 4 3 2 1 1 -0 -1 -2 -2 -3 -4 -4 -5 -6 -7 -7 -7 -8 -8 -7 -8 -8 -8 -8 -8 -8 -8 -9 -9 -9 -9 -10 -10 -10 -11
6 5 4 4 4 4 3 3 1 0 -1 -1 0 -1 -1 -2 -3 -3 -4 -4 -5 -6 -7 -7 -7 -8 -8 -8 -8 -8 -8 -8 -8 -8 -9 -9 -9 -10 -10 -10 -10 -11 -11 -11
5 4 4 3 3 2 1 0 -0 -1 -1 -2 -2 -1 -2 -2 -3 -4 -4 -5 -5 -7 -7 -7 -8 -8 -8 -9 -8 -8 -8 -9 -9 -9 -9 -9 -10 -10 -10 -11 -11 -11 -11 -12
4 3 2 2 2 2 1 0 0 -1 -1 -2 -2 -2 -2 -4 -4 -5 -5 -5 -5 -6 -7 -7 -8 -8 -9 -9 -9 -9 -9 -9 -9 -9 -10 -10 -10 -10 -11 -11 -11 -11 -12 -12
6 5 4 3 1 0 -0 0 0 -0 -1 -1 -1 -2 -4 -4 -5 -6 -6 -7 -7 -8 -8 -8 -8 -9 -9 -9 -10 -10 -9 -10 -9 -10 -10 -10 -10 -11 -11 -11 -11 -12 -12 -12
5 4 3 3 2 1 0 -0 0 1 0 -0 -2 -3 -3 -3 -4 -5 -7 -7 -8 -8 -7 -8 -9 -9 -9 -10 -10 -10 -10 -10 -10 -10 -10 -10 -11 -11 -11 -11 -11 -12 -12 -12
4 4 4 3 3 2 1 1 1 0 0 -1 -2 -3 -4 -4 -5 -6 -7 -7 -6 -7 -7 -8 -8 -9 -10 -10 -10 -10 -10 -10 -10 -10 -10 -11 -11 -11 -11 -11 -12 -12 -12 -12
2 2 2 2 1 2 3 2 1 -1 -1 -1 -2 -4 -4 -5 -5 -6 -8 -8 -7 -7 -8 -8 -8 -9 -10 -9 -10 -10 -10 -10 -11 -11 -11 -11 -11 -11 -11 -12 -12 -12 -13 -13
-0 -2 -1 -0 0 -1 0 1 1 -1 -2 -3 -3 -4 -6 -7 -7 -7 -7 -7 -6 -7 -8 -8 -8 -9 -9 -10 -10 -10 -10 -11 -11 -11 -11 -11 -11 -11 -12 -12 -13 -13 -14 -14
-1 -1 -2 -2 -2 -2 -3 -2 -1 -1 -3 -4 -4 -5 -6 -6 -6 -8 -9 -7 -7 -7 -8 -8 -9 -9 -9 -10 -10 -10 -10 -10 -11 -11 -12 -12 -13 -13 -14 -14 -14 -15 -15 -16
-3 -2 -3 -3 -3 -4 -6 -5 -4 -4 -3 -4 -4 -5 -5 -7 -7 -7 -7 -6 -6 -7 -8 -9 -9 -9 -9 -10 -10 -10 -11 -12 -12 -13 -13 -13 -14 -15 -16 -16 -17 -17 -18 -18
-3 -4 -4 -4 -5 -5 -5 -6 -6 -6 -6 -7 -7 -7 -7 -7 -6 -6 -7 -7 -7 -8 -8 -9 -9 -9 -10 -10 -11 -12 -13 -13 -14 -14 -15 -16 -17 -17 -18 -19 -20 -20 -20 -20
-3 -4 -4 -3 -3 -4 -5 -6 -7 -8 -8 -8 -7 -7 -7 -7 -7 -7 -7 -7 -8 -9 -9 -10 -10 -11 -11 -12 -13 -13 -14 -15 -16 -17 -18 -18 -19 -20 -20 -21 -21 -22 -22 -23
-3 -3 -4 -4 -4 -4 -5 -6 -7 -7 -7 -7 -7 -7 -7 -7 -7 -7 -8 -8 -9 -10 -10 -11 -12 -13 -13 -14 -15 -16 -16 -17 -18 -19 -20 -20 -21 -22 -22 -23 -23 -24 -24 -25

GFSNGP_925_temp_141.txt.gz
Temp
11 11 11 10 10 10 9 10 9 8 8 5 5 4 2 2 0 -0 -0 -1 -1 -3 -3 -2 -2 -2 -3 -3 -4 -4 -4 -5 -5 -5 -5 -5 -6 -7 -7 -7 -6 -5 -5 -5
8 10 10 9 8 9 10 10 9 8 7 4 3 2 2 1 1 -0 -0 -1 -1 -2 -2 -2 -2 -2 -3 -3 -4 -4 -4 -5 -5 -6 -6 -6 -6 -7 -8 -8 -8 -7 -6 -6
10 9 10 9 8 8 8 9 9 8 8 2 2 2 2 1 0 0 -0 -1 -2 -3 -2 -2 -2 -2 -3 -3 -4 -4 -5 -5 -6 -6 -6 -7 -7 -7 -8 -8 -8 -8 -8 -6
10 9 9 9 8 8 9 9 7 6 3 3 3 1 -0 -1 0 0 -1 -1 -1 -2 -2 -2 -2 -2 -2 -3 -4 -5 -5 -6 -6 -7 -7 -7 -8 -8 -9 -9 -9 -9 -8 -8
10 10 10 9 9 8 8 9 6 5 3 1 0 0 -0 -0 -1 -1 -1 -1 -1 -1 -2 -2 -2 -2 -3 -3 -4 -5 -6 -6 -7 -7 -8 -8 -8 -9 -9 -9 -9 -9 -10 -9
9 10 10 10 10 9 10 8 5 4 2 1 1 1 -1 -0 -1 -1 -0 -1 -1 -2 -2 -2 -2 -2 -3 -4 -4 -5 -5 -6 -6 -7 -7 -8 -8 -9 -9 -9 -10 -10 -10 -9
10 10 10 10 9 10 9 8 5 4 2 1 2 1 -1 -0 -1 -1 -1 -2 -2 -2 -3 -3 -3 -3 -4 -4 -5 -5 -5 -6 -6 -7 -7 -8 -8 -9 -9 -9 -9 -9 -9 -9
8 9 9 9 9 9 7 5 4 3 2 2 -0 -1 -0 -1 -2 -1 -1 -2 -2 -3 -4 -4 -3 -3 -4 -5 -5 -5 -5 -6 -6 -7 -7 -7 -8 -8 -9 -10 -10 -10 -10 -10
9 8 6 6 8 7 6 4 3 3 2 1 -0 -0 -0 -1 -1 -0 -1 -2 -3 -4 -5 -5 -4 -4 -5 -5 -5 -5 -6 -6 -7 -7 -7 -7 -8 -8 -9 -9 -10 -10 -10 -10
7 5 6 7 6 5 5 4 3 3 2 1 -0 -0 0 0 0 -0 -2 -3 -4 -4 -5 -6 -5 -5 -5 -5 -5 -6 -6 -7 -7 -7 -7 -7 -7 -8 -8 -9 -10 -10 -10 -10
5 5 6 6 6 3 2 2 2 2 1 1 1 1 1 1 0 -1 -2 -3 -4 -5 -6 -6 -6 -6 -6 -6 -6 -7 -7 -7 -7 -7 -7 -8 -8 -8 -8 -9 -9 -9 -10 -10
5 5 6 5 3 2 2 1 1 1 1 1 2 2 1 1 -0 -1 -2 -3 -4 -5 -6 -7 -7 -7 -7 -6 -6 -7 -7 -7 -7 -8 -8 -8 -8 -8 -9 -9 -9 -9 -10 -10
6 4 4 3 2 3 1 1 1 1 1 1 -0 1 1 -0 -1 -2 -3 -4 -4 -5 -6 -7 -7 -7 -7 -7 -7 -7 -8 -8 -8 -8 -9 -9 -9 -9 -10 -10 -10 -10 -10 -11
4 4 3 3 3 2 2 2 3 2 2 1 1 1 -0 -1 -2 -3 -3 -4 -4 -5 -7 -7 -8 -8 -8 -7 -7 -8 -8 -8 -8 -9 -9 -9 -10 -10 -10 -10 -11 -11 -11 -12
5 5 4 3 3 2 2 1 0 -0 -1 -1 -1 -1 -1 -2 -3 -3 -4 -4 -5 -6 -7 -7 -8 -8 -8 -8 -8 -8 -8 -8 -9 -9 -9 -9 -10 -10 -10 -11 -11 -11 -12 -12
4 3 3 3 2 2 2 1 -0 -2 -2 -2 -1 -1 -1 -2 -3 -4 -4 -5 -5 -7 -7 -7 -8 -8 -8 -8 -8 -9 -9 -9 -9 -9 -10 -10 -10 -11 -11 -11 -11 -12 -12 -12
3 2 2 1 1 1 1 -0 -0 -2 -2 -2 -2 -2 -3 -4 -4 -5 -5 -5 -5 -5 -6 -7 -7 -8 -9 -9 -9 -9 -9 -9 -9 -10 -10 -10 -10 -11 -11 -11 -11 -12 -12 -12
5 3 3 2 1 -0 -1 -1 -1 -1 -2 -1 -2 -2 -4 -5 -6 -6 -6 -6 -6 -7 -7 -7 -8 -9 -9 -9 -10 -9 -9 -10 -10 -10 -10 -10 -11 -11 -11 -11 -11 -12 -12 -12
5 3 2 2 1 1 -0 -1 -0 -0 -1 -1 -2 -3 -3 -3 -4 -5 -6 -7 -7 -8 -8 -8 -8 -9 -9 -10 -10 -10 -10 -10 -10 -10 -10 -11 -11 -11 -11 -11 -12 -12 -12 -12
4 3 3 2 2 2 0 1 1 -0 -0 -1 -2 -4 -5 -4 -4 -5 -6 -6 -5 -6 -7 -7 -8 -9 -9 -10 -10 -10 -10 -10 -11 -11 -11 -11 -11 -11 -11 -11 -12 -12 -13 -13
2 2 1 1 1 2 2 2 1 -1 -1 -1 -2 -4 -4 -4 -5 -5 -7 -8 -6 -7 -7 -8 -8 -9 -9 -10 -10 -10 -10 -11 -11 -11 -11 -11 -11 -11 -12 -12 -13 -13 -14 -14
-0 -1 -1 -1 -0 -0 1 1 1 -0 -2 -2 -3 -3 -5 -6 -6 -7 -6 -6 -7 -7 -8 -8 -8 -9 -9 -9 -10 -10 -10 -11 -11 -11 -12 -12 -12 -12 -13 -14 -14 -15 -16 -16
-1 -1 -2 -1 -1 -2 -3 -2 -1 -0 -2 -3 -3 -4 -4 -5 -6 -8 -9 -7 -7 -7 -7 -8 -9 -9 -9 -9 -10 -10 -11 -11 -12 -12 -12 -13 -14 -15 -15 -16 -16 -17 -18 -18
-3 -3 -3 -3 -3 -4 -5 -5 -3 -3 -3 -4 -4 -4 -5 -7 -8 -7 -7 -6 -7 -7 -8 -8 -9 -9 -10 -10 -10 -11 -12 -12 -13 -14 -14 -15 -16 -17 -17 -18 -18 -19 -20 -20
-4 -5 -5 -4 -5 -5 -5 -5 -5 -5 -5 -6 -6 -6 -6 -6 -6 -7 -7 -6 -7 -8 -8 -9 -9 -10 -10 -10 -11 -12 -13 -14 -14 -15 -16 -17 -18 -19 -20 -20 -21 -21 -22 -22
-3 -4 -4 -4 -4 -4 -5 -6 -6 -7 -7 -8 -8 -7 -7 -7 -6 -6 -7 -8 -8 -9 -9 -10 -10 -11 -12 -12 -13 -14 -15 -16 -17 -18 -19 -20 -20 -21 -22 -22 -22 -23 -23 -24
-3 -4 -4 -5 -5 -5 -5 -5 -6 -7 -7 -7 -7 -8 -7 -7 -7 -8 -8 -9 -9 -10 -11 -12 -12 -13 -13 -14 -15 -16 -17 -18 -19 -20 -21 -21 -22 -23 -23 -23 -24 -25 -25 -26

GFSNGP_925_temp_144.txt.gz
Temp
10 11 10 8 9 9 9 10 10 10 8 8 5 4 2 1 -1 -1 -1 -1 -1 -3 -3 -3 -3 -3 -4 -4 -4 -5 -5 -6 -6 -7 -7 -7 -8 -8 -8 -7 -7 -6 -6 -6
6 9 10 9 9 9 9 9 9 9 8 5 4 3 1 1 -0 -0 -0 -1 -1 -2 -2 -3 -3 -3 -4 -4 -5 -5 -6 -6 -6 -7 -8 -8 -8 -8 -8 -8 -8 -7 -6 -7
10 9 9 10 9 8 9 9 10 9 9 3 3 2 1 0 0 -0 -1 -1 -1 -2 -3 -3 -3 -3 -4 -4 -5 -6 -6 -7 -7 -7 -8 -8 -8 -8 -9 -9 -9 -8 -8 -7
10 9 9 9 9 9 9 10 8 6 3 3 3 1 0 -0 -0 -0 -1 -1 -2 -3 -3 -3 -3 -3 -4 -4 -5 -6 -6 -7 -7 -7 -8 -8 -9 -9 -9 -9 -9 -9 -9 -8
10 10 10 11 9 8 8 10 8 6 3 1 0 1 -0 -0 -1 -2 -2 -2 -2 -2 -2 -3 -3 -3 -4 -4 -5 -6 -7 -7 -7 -7 -8 -8 -9 -9 -9 -9 -9 -9 -10 -9
9 10 10 11 10 9 10 8 6 4 2 1 2 3 0 -1 -1 -1 -1 -2 -2 -2 -3 -3 -3 -3 -4 -5 -5 -6 -6 -7 -7 -7 -8 -8 -9 -9 -9 -10 -10 -10 -10 -10
9 10 10 10 9 9 9 8 5 4 2 2 2 1 -1 -1 -2 -1 -1 -2 -2 -3 -3 -3 -3 -3 -5 -5 -6 -6 -6 -6 -7 -7 -7 -8 -8 -9 -9 -10 -10 -10 -10 -11
8 10 10 8 9 9 7 5 4 3 2 2 -0 -1 -1 -1 -2 -2 -2 -3 -3 -4 -4 -4 -4 -4 -5 -6 -6 -6 -6 -6 -7 -7 -8 -8 -8 -9 -10 -10 -10 -10 -10 -11
9 8 7 6 7 6 6 5 3 2 2 1 -1 -1 -1 -1 -1 -1 -2 -3 -4 -4 -5 -5 -4 -4 -5 -6 -5 -6 -6 -7 -7 -7 -8 -8 -9 -9 -10 -10 -10 -10 -10 -11
8 6 6 7 6 5 5 5 2 2 1 0 -0 -1 -1 -1 -1 -2 -3 -4 -4 -5 -5 -6 -5 -5 -5 -6 -5 -6 -6 -7 -7 -7 -8 -8 -8 -9 -9 -10 -10 -10 -10 -10
6 5 6 5 6 4 2 2 2 1 0 -0 -1 -1 -1 -0 -1 -2 -3 -4 -4 -5 -6 -6 -6 -6 -6 -6 -6 -6 -7 -7 -8 -8 -8 -8 -9 -9 -9 -9 -9 -10 -10 -10
6 6 6 6 3 2 2 1 1 0 -0 0 0 0 0 -0 -1 -2 -3 -4 -4 -5 -6 -6 -6 -6 -6 -6 -6 -7 -7 -8 -8 -8 -8 -9 -9 -9 -9 -9 -10 -10 -10 -10
6 4 3 2 2 2 1 0 0 -0 0 -0 1 1 -0 -1 -2 -2 -3 -4 -4 -5 -6 -6 -7 -7 -7 -7 -7 -7 -7 -8 -8 -9 -9 -9 -10 -10 -10 -11 -11 -11 -11 -11
3 3 3 3 2 2 1 1 1 0 -0 1 1 0 -0 -1 -2 -3 -4 -3 -4 -5 -6 -6 -7 -7 -7 -7 -8 -8 -8 -8 -8 -9 -9 -10 -10 -10 -11 -11 -11 -11 -12 -12
4 4 4 2 2 1 1 0 -1 -1 -1 -1 -0 -1 -2 -3 -3 -3 -3 -4 -4 -5 -6 -7 -7 -7 -7 -8 -8 -8 -8 -9 -9 -9 -10 -10 -10 -11 -11 -11 -11 -12 -12 -12
2 2 2 2 1 0 -0 -1 -1 -2 -2 -2 -2 -2 -2 -2 -3 -3 -4 -4 -5 -6 -6 -7 -7 -7 -8 -8 -8 -8 -9 -9 -9 -9 -10 -10 -10 -11 -11 -11 -11 -12 -12 -12
3 2 1 1 1 0 0 0 -0 -1 -2 -2 -2 -2 -2 -3 -4 -5 -5 -5 -4 -5 -6 -6 -7 -8 -8 -9 -9 -9 -9 -9 -9 -10 -10 -10 -11 -11 -11 -11 -11 -12 -12 -12
4 3 2 2 1 -0 -0 -1 -1 -1 -2 -1 -2 -2 -3 -4 -5 -5 -5 -5 -6 -6 -6 -7 -7 -8 -9 -9 -9 -9 -9 -9 -10 -10 -10 -10 -11 -11 -11 -11 -11 -12 -12 -12
4 2 2 2 1 0 -0 -1 -1 -0 -1 -1 -3 -3 -3 -3 -3 -4 -5 -6 -6 -7 -7 -8 -8 -9 -10 -10 -10 -10 -10 -10 -10 -10 -11 -11 -11 -11 -11 -11 -12 -12 -12 -13
3 3 2 1 2 1 0 0 0 -1 -1 -2 -3 -4 -5 -4 -4 -5 -6 -6 -6 -6 -7 -8 -9 -9 -10 -10 -10 -10 -10 -10 -11 -11 -11 -11 -11 -11 -11 -12 -12 -13 -13 -14
1 2 1 1 0 1 2 1 0 -1 -2 -1 -2 -3 -3 -4 -5 -5 -7 -8 -6 -7 -7 -8 -8 -9 -9 -10 -10 -10 -10 -11 -11 -12 -12 -12 -12 -12 -12 -13 -14 -15 -15 -16
-1 -2 -1 -1 -1 -1 -0 1 0 -1 -2 -2 -3 -4 -5 -6 -7 -7 -7 -6 -6 -7 -8 -8 -8 -9 -9 -10 -10 -10 -10 -11 -11 -12 -12 -12 -13 -14 -14 -15 -16 -16 -17 -18
-2 -2 -2 -2 -2 -2 -3 -2 -1 -1 -2 -3 -3 -4 -4 -5 -6 -9 -9 -7 -7 -7 -8 -8 -9 -9 -9 -10 -10 -10 -11 -11 -12 -12 -13 -14 -15 -15 -16 -17 -18 -19 -19 -20
-3 -3 -4 -3 -3 -3 -5 -5 -3 -3 -3 -4 -5 -5 -5 -7 -8 -7 -7 -6 -7 -7 -8 -9 -9 -9 -10 -10 -10 -11 -11 -13 -14 -14 -15 -16 -17 -18 -18 -19 -20 -20 -21 -21
-4 -5 -5 -4 -4 -6 -5 -6 -5 -5 -6 -6 -6 -6 -6 -6 -6 -7 -7 -7 -8 -8 -9 -9 -9 -10 -10 -10 -11 -12 -13 -14 -15 -16 -17 -18 -19 -19 -20 -21 -22 -22 -22 -23
-4 -5 -5 -4 -4 -4 -5 -5 -6 -7 -7 -8 -8 -8 -8 -7 -7 -7 -7 -8 -9 -9 -9 -10 -10 -11 -12 -12 -13 -14 -15 -16 -17 -18 -19 -20 -21 -21 -22 -22 -23 -23 -24 -25
-4 -4 -4 -5 -5 -5 -5 -5 -6 -7 -7 -7 -8 -8 -7 -7 -8 -8 -8 -9 -9 -10 -10 -11 -12 -13 -13 -14 -15 -16 -17 -18 -19 -20 -21 -22 -22 -23 -23 -23 -24 -25 -26 -26

GFSNGP_925_temp_147.txt.gz
Temp
12 12 12 11 12 11 12 12 11 12 11 11 9 7 5 3 1 0 0 0 0 -0 -1 -2 -3 -3 -4 -4 -4 -5 -6 -6 -6 -6 -7 -6 -7 -7 -7 -6 -7 -7 -7 -7
7 10 11 9 9 8 10 10 10 11 11 11 7 6 4 3 1 1 1 1 0 -0 -1 -1 -2 -3 -3 -4 -4 -4 -5 -5 -6 -6 -6 -7 -6 -7 -7 -6 -6 -7 -7 -8
11 9 10 9 10 10 11 11 11 10 12 7 6 5 4 3 2 2 2 1 0 -1 -2 -2 -2 -3 -4 -4 -5 -5 -5 -5 -6 -6 -6 -7 -7 -7 -7 -7 -7 -7 -7 -7
10 9 10 12 10 11 10 11 11 10 8 7 6 4 4 3 3 2 1 1 -1 -2 -3 -3 -3 -3 -4 -4 -5 -5 -5 -6 -6 -6 -7 -7 -7 -7 -7 -7 -8 -8 -8 -7
10 11 11 13 10 10 10 12 10 10 7 4 3 3 2 2 2 1 1 -0 -1 -3 -3 -3 -3 -4 -4 -4 -5 -5 -6 -6 -7 -7 -7 -7 -8 -8 -8 -8 -8 -9 -9 -9
10 10 10 12 10 10 11 12 8 8 6 4 4 6 6 2 1 -0 -0 -1 -2 -2 -3 -3 -4 -4 -4 -5 -5 -6 -6 -7 -7 -8 -8 -9 -9 -9 -8 -9 -9 -9 -10 -10
10 10 11 12 10 10 11 12 7 7 5 4 5 5 2 1 -0 -1 -1 -1 -2 -2 -2 -3 -4 -4 -4 -5 -6 -6 -6 -7 -7 -8 -8 -9 -9 -9 -9 -10 -10 -10 -10 -11
9 10 10 9 9 11 10 6 6 5 4 4 3 1 1 0 -1 -1 -1 -1 -2 -3 -3 -4 -4 -4 -4 -5 -6 -6 -6 -7 -7 -7 -8 -9 -9 -9 -9 -9 -9 -9 -9 -9
11 12 8 7 8 7 7 7 6 5 4 4 2 1 1 0 1 -0 -1 -2 -2 -3 -4 -4 -4 -4 -4 -5 -6 -6 -6 -6 -7 -7 -7 -8 -8 -9 -8 -9 -9 -8 -9 -9
10 8 8 7 6 7 6 7 5 4 3 3 2 1 1 1 1 -0 -1 -2 -3 -4 -4 -4 -5 -5 -5 -5 -6 -6 -6 -6 -7 -7 -7 -8 -8 -8 -9 -9 -9 -9 -9 -9
9 8 7 7 7 6 5 4 4 3 3 2 2 1 1 1 0 -1 -2 -3 -3 -3 -4 -5 -6 -6 -6 -6 -6 -6 -6 -6 -7 -7 -8 -8 -8 -8 -8 -9 -9 -9 -10 -10
10 8 9 7 6 4 5 4 3 2 2 2 2 1 1 1 -0 -1 -2 -3 -3 -4 -4 -6 -6 -6 -6 -6 -6 -6 -6 -7 -7 -8 -8 -8 -8 -9 -10 -10 -10 -10 -10 -10
9 5 4 3 3 4 4 3 2 2 2 2 1 1 1 0 -1 -1 -2 -3 -3 -4 -5 -6 -6 -7 -7 -7 -6 -6 -7 -7 -8 -8 -9 -9 -9 -9 -10 -11 -11 -11 -11 -11
5 5 5 4 5 3 3 2 2 1 1 2 1 1 0 -0 -1 -1 -2 -2 -3 -4 -5 -6 -6 -7 -7 -7 -7 -7 -7 -8 -9 -9 -10 -10 -11 -11 -11 -11 -11 -12 -12 -12
5 5 5 4 3 2 1 1 1 1 1 1 0 0 -0 -0 -1 -2 -2 -3 -4 -5 -5 -6 -7 -7 -7 -7 -7 -7 -8 -8 -9 -9 -10 -10 -11 -11 -11 -12 -12 -12 -12 -12
3 3 3 4 3 2 2 1 1 1 1 0 -0 -0 -1 -1 -2 -3 -4 -4 -4 -5 -6 -6 -6 -6 -7 -8 -8 -9 -9 -9 -9 -10 -10 -11 -11 -11 -11 -11 -12 -12 -12 -12
4 3 3 2 2 2 2 2 2 1 -0 -0 -1 -2 -2 -3 -4 -4 -5 -4 -4 -4 -4 -5 -6 -7 -8 -8 -8 -9 -9 -9 -9 -10 -10 -11 -11 -11 -11 -12 -11 -11 -12 -12
5 4 4 4 3 2 1 1 0 -0 -1 -1 -2 -2 -3 -4 -3 -5 -4 -5 -5 -6 -6 -6 -7 -8 -8 -8 -9 -9 -9 -10 -10 -10 -10 -11 -11 -11 -11 -12 -12 -12 -12 -13
4 3 3 2 2 2 1 1 -0 -0 -1 -1 -2 -3 -3 -3 -3 -4 -5 -6 -6 -7 -7 -7 -8 -8 -9 -9 -9 -10 -10 -10 -10 -11 -11 -11 -11 -12 -12 -12 -12 -13 -14 -15
3 2 2 1 1 1 0 0 0 -1 -1 -2 -2 -4 -5 -4 -4 -5 -5 -6 -6 -6 -6 -7 -8 -9 -9 -10 -10 -10 -10 -10 -11 -11 -11 -12 -12 -12 -13 -13 -14 -15 -16 -16
2 2 1 1 -0 1 2 1 0 -2 -2 -2 -3 -4 -4 -5 -5 -5 -7 -8 -6 -7 -7 -8 -8 -9 -10 -10 -10 -10 -10 -11 -11 -11 -12 -12 -13 -13 -14 -15 -16 -17 -18 -18
-1 -2 -2 -1 -1 -2 -1 0 -0 -1 -2 -3 -3 -3 -4 -6 -7 -7 -6 -7 -6 -7 -7 -8 -9 -9 -9 -10 -10 -10 -10 -11 -11 -12 -13 -13 -14 -16 -17 -17 -18 -19 -20 -20
-2 -2 -2 -2 -2 -3 -3 -2 -1 -1 -2 -3 -4 -4 -5 -6 -7 -8 -8 -7 -7 -7 -8 -8 -9 -9 -9 -10 -10 -10 -11 -11 -12 -13 -14 -15 -16 -17 -18 -19 -19 -20 -21 -21
-3 -3 -4 -3 -3 -4 -5 -5 -4 -4 -3 -4 -4 -4 -5 -7 -8 -7 -6 -6 -7 -8 -8 -9 -9 -9 -10 -10 -10 -11 -12 -12 -14 -15 -16 -16 -17 -18 -19 -20 -21 -21 -22 -22
-4 -5 -4 -4 -4 -5 -6 -6 -6 -6 -6 -6 -6 -6 -6 -6 -6 -7 -7 -7 -8 -9 -9 -9 -10 -10 -10 -11 -11 -12 -13 -14 -15 -16 -17 -18 -19 -20 -21 -22 -22 -23 -23 -24
-4 -5 -5 -4 -4 -5 -6 -6 -6 -7 -7 -8 -9 -8 -8 -8 -8 -8 -8 -8 -9 -9 -9 -10 -10 -11 -11 -12 -13 -14 -15 -16 -17 -18 -19 -20 -21 -22 -22 -22 -23 -24 -24 -25
-4 -4 -4 -5 -5 -5 -5 -5 -6 -7 -7 -8 -9 -9 -9 -9 -8 -8 -9 -9 -10 -10 -11 -11 -12 -12 -13 -14 -15 -16 -17 -18 -19 -20 -21 -21 -22 -22 -23 -24 -24 -25 -25 -26